RH
12 15 18 18 20 20 18 21 20 18 23 23 24 26 27 28 27 22 20 23 23 23 24 23 24 24 24 27 30 31 33 35 37 42 44 46 47 48 50 53 56 59 59 58 58 63 66 63 60 59 58 56 56 56 54 51 48 48 48 46 44 42 40 38 37 37 35 34 32 31 30 29 29 32 36 35 34 35 34 34 34 33 32 32 31 30
13 15 16 18 21 20 18 22 21 19 23 26 26 27 28 27 25 20 19 22 23 23 24 24 24 25 25 27 31 34 37 40 42 45 47 49 51 53 56 60 62 62 61 62 65 68 69 67 65 64 62 60 59 58 55 53 52 51 49 47 45 43 41 40 39 37 36 35 35 34 33 34 35 37 39 41 40 40 39 37 36 35 33 33 34 35
15 14 14 17 19 20 23 26 21 19 24 27 26 25 24 25 24 22 21 23 25 24 23 24 27 28 29 31 33 36 38 41 45 48 51 53 55 59 63 65 64 64 66 69 70 71 71 70 67 64 62 60 59 58 56 54 53 52 50 48 46 44 43 41 39 38 38 38 39 39 38 38 41 43 43 43 42 43 44 42 40 39 37 38 40 40
14 12 15 17 20 21 24 28 25 22 24 24 22 22 23 24 23 22 22 24 26 27 27 28 30 31 33 35 36 39 39 41 46 49 53 56 60 64 66 65 67 69 72 74 73 72 71 67 63 61 60 60 60 59 57 56 54 53 51 50 48 46 44 43 42 42 42 43 43 43 42 43 45 46 45 44 42 42 44 45 43 42 42 45 47 46
16 15 16 20 26 25 22 26 27 21 21 26 24 22 23 24 24 24 26 27 26 30 33 32 32 33 37 40 40 41 42 43 47 50 54 59 64 66 66 68 72 74 76 76 74 70 65 62 61 60 61 62 61 59 59 57 55 54 53 51 48 47 47 46 46 46 46 46 45 45 44 43 44 45 45 44 43 42 44 47 46 46 47 50 50 48
21 20 18 22 28 27 22 23 24 22 23 27 27 25 24 24 27 28 30 30 27 30 33 34 39 41 40 42 45 45 45 46 48 51 56 62 65 66 69 72 75 77 76 73 69 64 62 62 62 63 64 63 62 62 61 58 56 57 55 52 50 50 51 51 51 52 53 53 52 51 49 46 44 42 42 41 41 41 43 47 48 48 50 53 54 53
22 22 22 23 26 26 25 23 24 25 24 25 27 28 27 27 30 31 31 32 31 31 31 34 46 50 43 42 47 48 48 48 49 54 60 64 66 68 73 76 76 77 74 69 65 63 63 64 65 67 66 66 65 64 61 59 59 59 56 54 53 52 51 52 55 57 59 59 57 55 53 50 45 41 39 38 38 39 42 47 51 51 51 53 57 59
20 21 24 26 27 25 23 21 24 26 25 27 28 28 29 29 31 32 32 34 34 33 34 37 44 49 45 44 49 51 50 51 54 61 66 66 68 72 75 76 74 72 68 65 64 64 65 68 69 70 69 69 68 65 62 61 61 59 58 56 53 52 56 58 58 58 57 54 51 49 47 46 43 42 40 38 38 40 46 53 57 57 56 54 55 59
20 20 22 24 24 23 20 19 25 29 26 29 31 30 30 32 33 34 33 34 35 37 40 41 41 43 43 43 51 54 52 55 61 68 72 71 71 74 74 72 69 66 64 64 65 67 70 73 73 72 71 69 68 66 65 63 62 60 58 55 52 53 59 59 56 54 50 46 44 44 44 45 48 50 46 42 43 46 53 59 61 60 58 55 53 56
21 23 23 22 20 20 22 22 27 31 28 28 32 30 30 33 32 32 33 33 37 44 45 39 38 42 43 40 48 54 54 61 68 71 77 76 73 72 70 67 65 65 65 67 70 73 75 75 75 73 71 70 69 69 66 63 61 59 56 54 52 51 51 49 47 46 44 41 42 43 45 49 54 56 51 47 48 53 58 60 59 57 55 54 54 54
22 25 25 23 21 21 24 25 28 31 30 30 32 29 26 29 30 33 41 38 38 47 47 38 36 44 47 41 43 52 57 62 66 70 77 77 71 68 66 65 66 66 68 71 74 76 76 75 75 74 73 72 70 67 64 61 58 55 53 52 50 47 44 43 43 42 40 40 43 46 48 53 56 57 55 54 54 55 59 58 57 58 60 61 63 63
25 26 26 25 23 24 25 26 28 32 33 32 32 30 26 28 31 38 45 41 37 40 41 38 37 43 48 45 45 53 59 62 64 66 70 68 65 64 64 66 68 69 72 75 76 76 76 76 75 74 73 70 68 64 60 57 54 52 51 48 46 46 45 42 40 39 39 41 45 49 51 54 57 58 59 60 59 60 63 64 65 69 74 75 77 79
26 27 27 25 24 25 25 24 27 32 35 33 32 34 34 36 39 39 40 39 37 34 34 37 38 39 43 44 49 56 60 65 65 63 63 63 63 64 67 71 72 72 74 75 76 77 76 75 74 72 70 68 64 60 57 55 54 53 50 48 46 45 41 38 38 38 40 44 49 53 56 59 61 62 65 67 68 70 71 73 76 81 84 83 83 88
25 28 27 26 25 25 25 25 26 30 33 32 33 37 40 43 46 45 43 44 41 34 32 37 41 44 44 45 53 59 63 68 66 64 66 66 66 69 72 75 75 74 75 75 77 76 74 73 72 71 69 66 61 57 56 56 55 53 51 49 45 39 36 36 36 38 43 50 55 59 63 64 65 68 73 77 78 77 77 81 86 89 90 87 85 90
25 27 27 26 25 26 27 28 29 31 33 36 38 40 41 44 47 49 50 48 43 38 36 37 45 53 50 50 56 59 63 70 70 70 70 68 70 73 74 75 75 75 75 75 75 73 73 74 73 71 66 63 61 58 57 55 54 52 48 44 40 37 37 37 38 41 46 52 57 61 64 67 73 79 83 84 82 79 82 88 93 95 95 93 91 94
26 27 29 29 28 28 29 32 35 34 36 40 42 43 43 45 47 47 49 46 45 49 48 43 47 54 51 52 57 59 62 68 70 71 70 69 73 74 74 75 76 75 73 73 73 73 75 75 72 68 65 64 62 59 57 56 54 49 42 37 36 37 39 40 42 44 45 49 53 60 68 76 83 87 87 84 81 83 88 93 95 96 97 94 92 94
27 28 30 30 31 31 31 36 39 36 37 41 43 44 45 46 46 47 49 48 50 56 52 46 46 49 50 55 59 63 67 69 69 70 70 71 73 73 74 76 75 75 74 75 77 77 77 74 70 67 66 65 63 61 59 56 50 43 38 36 35 36 38 41 44 45 46 48 53 62 74 84 89 90 86 82 83 88 94 97 97 95 93 92 92 93
30 29 30 31 32 33 33 36 39 38 40 43 45 45 46 48 48 51 56 55 56 57 50 45 48 49 53 60 64 66 70 70 68 70 71 72 73 73 75 76 75 75 77 79 80 80 77 73 70 69 67 65 65 63 59 50 43 40 38 37 37 37 39 42 44 46 48 50 56 67 80 88 91 89 83 84 90 95 97 97 95 92 91 92 95 96
33 30 32 33 33 33 35 37 39 40 42 43 45 46 48 51 51 53 58 62 66 64 55 49 51 55 59 65 68 69 71 71 71 72 73 74 76 78 79 79 77 77 80 81 81 79 77 74 73 71 70 68 64 58 50 44 41 41 40 39 39 38 39 42 45 46 49 53 60 72 84 90 91 87 85 90 97 98 96 94 92 92 94 96 99 100
35 33 34 35 34 35 36 37 38 41 43 44 46 48 50 51 52 52 54 60 68 69 64 60 57 61 68 68 68 72 73 75 75 75 77 79 80 82 82 82 81 82 82 82 80 78 76 75 74 74 72 66 58 50 45 44 44 43 42 41 39 38 38 41 45 47 50 55 64 76 86 91 90 88 89 95 100 97 94 94 95 97 99 99 99 100
35 35 35 35 36 36 37 38 39 40 43 45 47 48 50 50 52 52 51 55 62 65 68 71 64 62 68 69 69 73 75 76 77 78 80 82 82 82 82 83 84 84 83 82 80 78 75 76 75 71 65 57 51 48 46 46 46 45 44 41 38 36 36 40 43 46 51 59 70 82 90 92 90 90 93 97 100 98 95 97 100 100 99 100 100 100
34 37 38 36 35 35 35 38 39 40 43 47 49 50 52 53 54 58 58 57 62 65 67 74 71 64 66 69 70 74 75 76 78 80 81 81 82 82 82 83 85 85 83 82 80 77 76 76 71 62 55 51 50 50 48 47 47 47 43 39 36 33 33 38 42 47 55 65 77 88 92 92 91 93 96 98 99 98 98 99 99 98 98 100 102 101
34 38 41 40 37 35 35 38 40 42 44 46 50 52 55 58 58 61 62 59 62 68 69 75 78 72 68 69 70 72 75 77 79 81 81 81 80 81 82 84 84 83 81 81 80 77 73 68 60 53 50 50 50 49 48 48 48 47 42 37 34 32 32 37 42 51 62 72 82 91 93 93 94 95 97 98 99 98 98 98 97 98 100 101 102 100
37 39 40 37 33 31 34 37 39 43 45 47 51 53 57 59 57 59 61 63 69 74 76 81 81 72 68 70 70 72 75 77 79 80 81 80 79 79 81 83 82 80 81 81 79 73 66 59 54 51 49 48 49 49 49 49 48 45 39 35 33 32 32 37 45 57 68 77 88 94 94 95 97 98 98 99 99 98 99 99 98 99 101 102 101 99
36 40 40 40 39 37 35 35 37 40 44 47 50 54 56 57 58 60 61 67 73 71 74 86 83 69 66 71 72 74 77 78 79 79 80 82 82 83 84 83 81 81 81 78 72 65 61 58 55 51 48 48 50 51 51 49 46 42 37 34 33 32 34 39 50 62 72 83 92 95 95 98 98 98 98 98 98 99 100 100 100 100 101 101 100 99
36 40 41 45 52 53 49 47 45 44 45 46 46 51 54 55 58 61 63 72 78 69 70 87 87 69 64 72 75 77 80 80 80 81 82 84 84 85 86 85 83 82 77 70 65 63 63 60 56 52 49 49 51 51 51 47 42 38 36 34 34 33 36 44 56 67 77 88 95 96 96 98 98 97 98 98 99 99 100 101 100 100 101 102 101 100
39 42 42 45 51 52 50 48 47 48 50 48 47 50 53 56 60 64 68 75 77 70 68 74 77 72 70 75 80 82 83 84 84 85 85 85 85 86 86 83 79 74 68 66 66 68 66 62 57 53 51 51 51 49 48 44 40 37 35 35 34 35 39 49 61 71 82 92 96 97 97 97 97 98 98 99 99 99 99 100 101 101 102 102 102 100
40 42 43 45 47 47 46 45 46 50 51 49 50 53 54 56 59 64 68 68 69 76 74 65 69 79 80 79 83 86 86 86 86 87 86 86 86 84 78 72 67 64 64 67 70 71 68 61 56 54 54 52 50 47 45 42 38 36 35 35 35 36 43 55 66 76 87 94 97 97 97 97 98 99 99 98 98 99 100 101 102 103 102 101 100 99
38 43 45 44 44 45 46 46 46 48 48 49 53 54 54 56 57 60 63 63 68 79 78 69 73 83 82 82 85 86 86 88 88 87 86 84 79 73 67 64 63 64 68 72 72 70 64 57 54 55 55 53 51 48 46 42 37 35 36 36 36 39 49 61 70 80 91 96 96 97 97 98 98 99 99 99 99 101 101 101 102 102 101 101 99 98
38 46 49 46 45 45 45 45 45 47 48 48 50 50 51 54 56 57 59 62 69 74 74 75 79 80 80 84 86 85 87 89 87 82 77 72 68 65 65 66 67 70 73 73 68 63 58 54 52 52 54 54 52 50 48 44 38 36 36 36 37 44 55 64 73 85 94 96 96 97 97 98 98 98 100 101 101 102 102 101 101 100 100 100 98 97
38 46 52 50 47 45 43 42 44 47 49 48 47 48 50 52 56 60 62 66 72 73 73 76 79 78 79 83 85 86 88 85 77 69 67 66 66 66 67 68 72 74 73 68 61 57 56 55 53 52 53 53 52 52 50 44 38 37 37 37 39 48 59 67 76 89 97 97 96 96 96 98 99 99 100 102 102 102 102 102 101 100 100 99 98 98
41 47 51 53 52 47 43 42 43 43 46 49 49 50 51 53 59 66 69 72 76 78 77 78 80 81 81 84 86 85 82 75 68 66 69 69 68 68 69 72 76 76 71 63 58 57 58 58 57 58 56 54 54 54 49 41 38 37 37 37 43 53 62 68 78 91 97 97 96 96 96 98 100 100 100 102 102 101 100 101 101 101 101 101 100 100
47 48 50 55 54 47 42 44 46 46 49 53 55 56 56 56 60 65 69 71 74 78 81 82 81 80 80 83 84 78 71 69 69 71 72 70 69 71 72 75 78 75 69 61 57 58 60 60 61 62 60 58 57 53 46 39 38 38 37 39 47 57 64 69 81 93 97 97 97 97 97 99 100 100 100 101 102 101 101 101 101 102 102 102 102 101
53 52 53 57 56 51 47 45 47 53 57 58 59 60 61 62 64 67 69 71 72 71 74 77 76 76 78 78 75 70 68 70 71 70 67 69 74 76 74 76 78 74 67 61 58 60 62 61 62 63 63 62 58 52 44 38 37 37 36 40 49 59 65 72 84 95 98 98 98 99 100 99 97 98 100 101 101 102 101 102 101 101 101 102 101 99
52 53 55 57 59 57 52 52 59 64 60 59 61 62 62 64 67 68 67 68 71 72 74 75 75 75 75 71 67 68 70 69 65 61 62 68 75 76 74 77 77 73 67 62 59 60 62 62 63 65 66 64 58 50 43 37 36 36 37 42 52 61 66 75 87 96 98 97 99 101 99 94 93 97 99 100 101 102 101 101 101 100 101 100 98 95
49 53 54 56 59 57 53 60 69 66 55 54 61 63 63 66 72 76 74 71 73 78 78 77 76 73 69 68 67 67 65 58 52 50 58 66 68 68 73 78 77 71 65 58 56 60 64 64 65 67 68 65 57 48 40 37 36 36 38 45 55 62 68 76 88 97 98 98 100 100 95 92 95 97 97 98 101 101 101 102 101 100 100 97 92 87
50 55 54 55 59 60 59 63 64 59 58 63 66 67 70 73 76 81 85 80 76 77 77 76 73 69 67 69 68 61 54 50 48 48 53 59 61 65 72 74 72 64 56 53 56 62 65 66 67 69 68 60 51 43 39 37 37 37 39 47 56 63 69 77 90 99 99 99 101 99 94 94 97 96 96 99 100 100 100 102 102 101 98 91 84 78
48 53 57 61 63 63 66 70 69 68 70 71 71 71 75 76 76 80 84 80 74 73 73 71 69 68 68 67 61 53 50 54 57 55 54 57 61 66 67 64 60 55 51 54 60 63 65 66 67 66 61 52 44 41 39 38 37 38 42 49 58 65 70 79 93 100 99 100 101 97 94 97 98 97 99 101 101 101 101 102 102 99 93 84 76 71
49 55 60 64 67 67 71 77 81 82 77 72 72 73 75 79 79 77 75 72 70 71 70 67 67 68 67 60 52 50 57 65 65 59 58 61 63 62 61 58 55 53 54 59 62 63 64 64 62 59 51 44 41 40 38 38 38 39 44 52 60 66 71 82 96 101 101 102 100 95 95 99 100 100 101 102 102 102 102 102 101 95 86 77 72 70
57 62 62 63 64 67 71 76 79 81 79 76 75 76 79 79 75 75 78 77 73 70 68 67 67 64 56 50 48 52 59 66 66 60 58 60 58 55 56 56 54 54 53 54 57 60 60 57 53 50 46 42 41 39 38 39 39 41 47 55 62 67 73 85 97 102 103 101 97 95 98 100 100 101 102 102 102 101 101 102 99 89 79 73 71 74
59 62 63 64 66 68 71 73 75 76 77 78 78 80 81 76 73 81 89 83 72 68 67 65 60 52 48 49 52 51 47 48 52 53 51 50 48 47 50 49 49 50 49 49 53 55 52 48 46 45 43 41 41 40 40 40 40 42 50 59 64 68 75 86 98 102 100 97 95 98 101 100 99 101 101 101 101 101 101 100 92 81 74 73 76 81
57 60 64 67 68 69 70 72 75 77 76 76 78 79 80 81 85 89 84 74 69 68 64 57 50 47 47 47 46 42 36 34 39 42 42 40 39 41 44 44 44 45 45 47 49 49 45 42 41 42 42 41 42 41 41 40 40 45 54 60 64 69 76 88 99 100 96 95 97 100 100 98 98 100 101 101 101 101 100 94 83 76 74 77 81 85
56 59 64 67 67 67 72 80 88 88 81 79 81 81 81 87 89 82 73 69 67 63 56 51 46 43 40 36 32 31 31 33 35 35 35 35 36 38 41 41 42 42 42 44 46 44 41 37 38 40 42 42 42 42 40 40 42 48 55 60 65 70 77 90 99 98 95 97 99 99 98 98 98 100 101 101 100 100 96 87 77 74 77 82 85 86
58 60 66 71 72 74 79 87 90 87 83 83 85 85 85 84 80 75 72 69 63 56 53 49 40 32 29 28 28 29 30 33 34 33 33 35 36 37 38 39 40 41 41 43 45 41 36 35 38 42 42 41 41 41 40 40 44 50 56 61 65 70 78 91 97 97 97 99 98 97 97 98 98 99 100 101 101 97 89 80 75 76 81 85 87 85
59 59 63 69 74 77 79 81 80 79 80 82 83 83 82 78 75 74 71 66 60 55 49 40 31 27 28 29 29 30 31 33 34 35 36 36 36 37 38 38 40 39 38 42 42 37 34 38 41 41 39 39 41 41 40 41 46 52 57 62 67 70 79 90 96 98 99 98 96 97 97 97 97 97 98 101 100 92 82 77 78 81 84 86 86 81
56 55 58 63 69 70 68 69 71 72 72 73 75 77 76 74 73 71 66 62 59 51 39 31 29 29 30 30 30 30 31 33 34 35 36 36 36 38 38 38 39 38 38 40 39 35 36 40 41 39 40 41 41 40 40 43 49 54 59 65 68 70 79 90 97 100 100 97 95 97 98 97 96 97 98 99 96 87 79 78 81 83 84 85 82 78
54 53 56 61 66 69 69 69 71 71 70 70 70 69 70 71 70 67 64 62 55 43 33 31 30 29 29 29 30 31 31 33 34 35 36 36 37 38 38 38 38 37 38 39 38 37 39 41 40 40 42 42 40 39 40 45 51 57 62 65 66 70 81 93 99 100 100 98 96 97 97 97 97 98 99 98 91 83 79 80 83 84 85 83 79 79
54 55 59 61 64 68 68 67 66 67 68 69 68 68 69 69 68 66 64 57 45 36 34 32 29 28 29 29 30 31 32 35 36 36 37 39 39 38 38 38 37 37 38 39 39 39 41 41 41 42 41 40 39 40 42 48 54 60 63 64 66 74 86 95 99 99 98 98 97 96 97 98 98 99 100 96 88 82 80 81 83 83 82 77 75 79
53 58 62 62 62 62 60 58 56 58 60 62 65 69 72 71 69 67 60 48 38 37 36 31 25 26 29 29 31 32 34 36 37 37 39 40 38 37 37 37 37 38 38 38 39 40 41 41 41 41 40 39 40 42 46 53 59 62 64 65 70 81 90 95 99 99 97 98 97 95 96 97 97 98 99 94 86 82 82 83 84 82 78 74 73 79
55 60 62 63 65 66 64 63 63 64 64 64 67 72 73 72 71 64 52 41 39 40 37 29 22 24 27 29 32 34 35 36 38 39 38 37 35 36 37 38 38 38 38 38 39 40 41 42 41 40 39 40 42 47 53 59 63 64 65 68 77 87 92 95 99 99 97 98 98 95 95 96 96 98 97 91 83 80 80 81 82 79 74 70 71 78
57 61 63 66 69 69 67 66 68 69 69 69 70 73 73 72 68 58 46 41 41 40 34 28 27 28 28 29 33 35 36 37 38 36 34 32 33 36 38 37 37 37 37 39 39 40 41 41 40 40 39 41 47 54 61 65 66 66 68 74 83 91 93 95 99 99 98 99 98 96 96 96 97 98 96 90 83 80 80 79 76 72 70 70 70 74